Year,Month,Day,Hour,Minute,Value (Times are PST for temperature in C)
2018,05,12,00,00,14.00
2018,05,12,00,01,13.90
2018,05,12,00,02,13.90
2018,05,12,00,03,13.80
2018,05,12,00,04,13.80
2018,05,12,00,05,13.80
2018,05,12,00,06,13.70
2018,05,12,00,07,13.70
2018,05,12,00,08,13.70
2018,05,12,00,09,13.70
2018,05,12,00,10,13.70
2018,05,12,00,11,13.60
2018,05,12,00,12,13.60
2018,05,12,00,13,13.60
2018,05,12,00,14,13.60
2018,05,12,00,15,13.60
2018,05,12,00,16,13.60
2018,05,12,00,17,13.60
2018,05,12,00,18,13.60
2018,05,12,00,19,13.60
2018,05,12,00,20,13.60
2018,05,12,00,21,13.60
2018,05,12,00,22,13.60
2018,05,12,00,23,13.60
2018,05,12,00,24,13.60
2018,05,12,00,25,13.60
2018,05,12,00,26,13.60
2018,05,12,00,27,13.60
2018,05,12,00,28,13.60
2018,05,12,00,29,13.60
2018,05,12,00,30,13.60
2018,05,12,00,31,13.60
2018,05,12,00,32,13.60
2018,05,12,00,33,13.60
2018,05,12,00,34,13.50
2018,05,12,00,35,13.50
2018,05,12,00,36,13.50
2018,05,12,00,37,13.40
2018,05,12,00,38,13.40
2018,05,12,00,39,13.30
2018,05,12,00,40,13.20
2018,05,12,00,41,13.10
2018,05,12,00,42,13.00
2018,05,12,00,43,12.90
2018,05,12,00,44,12.80
2018,05,12,00,45,12.70
2018,05,12,00,46,12.60
2018,05,12,00,47,12.50
2018,05,12,00,48,12.40
2018,05,12,00,49,12.30
2018,05,12,00,50,12.30
2018,05,12,00,51,12.20
2018,05,12,00,52,12.20
2018,05,12,00,53,12.20
2018,05,12,00,54,12.20
2018,05,12,00,55,12.20
2018,05,12,00,56,12.20
2018,05,12,00,57,12.20
2018,05,12,00,58,12.20
2018,05,12,00,59,12.20
2018,05,12,01,00,12.20
2018,05,12,01,01,12.20
2018,05,12,01,02,12.20
2018,05,12,01,03,12.30
2018,05,12,01,04,12.30
2018,05,12,01,05,12.30
2018,05,12,01,06,12.30
2018,05,12,01,07,12.30
2018,05,12,01,08,12.40
2018,05,12,01,09,12.40
2018,05,12,01,10,12.40
2018,05,12,01,11,12.50
2018,05,12,01,12,12.50
2018,05,12,01,13,12.50
2018,05,12,01,14,12.50
2018,05,12,01,15,12.60
2018,05,12,01,16,12.60
2018,05,12,01,17,12.60
2018,05,12,01,18,12.60
2018,05,12,01,19,12.60
2018,05,12,01,20,12.70
2018,05,12,01,21,12.70
2018,05,12,01,22,12.70
2018,05,12,01,23,12.70
2018,05,12,01,24,12.70
2018,05,12,01,25,12.70
2018,05,12,01,26,12.60
2018,05,12,01,27,12.60
2018,05,12,01,28,12.60
2018,05,12,01,29,12.60
2018,05,12,01,30,12.60
2018,05,12,01,31,12.60
2018,05,12,01,32,12.60
2018,05,12,01,33,12.60
2018,05,12,01,34,12.60
2018,05,12,01,35,12.60
2018,05,12,01,36,12.60
2018,05,12,01,37,12.60
2018,05,12,01,38,12.60
2018,05,12,01,39,12.60
2018,05,12,01,40,12.60
2018,05,12,01,41,12.60
2018,05,12,01,42,12.60
2018,05,12,01,43,12.50
2018,05,12,01,44,12.50
2018,05,12,01,45,12.50
2018,05,12,01,46,12.50
2018,05,12,01,47,12.50
2018,05,12,01,48,12.40
2018,05,12,01,49,12.40
2018,05,12,01,50,12.40
2018,05,12,01,51,12.40
2018,05,12,01,52,12.40
2018,05,12,01,53,12.30
2018,05,12,01,54,12.30
2018,05,12,01,55,12.30
2018,05,12,01,56,12.30
2018,05,12,01,57,12.30
2018,05,12,01,58,12.30
2018,05,12,01,59,12.30
2018,05,12,02,00,12.30
2018,05,12,02,01,12.30
2018,05,12,02,02,12.30
2018,05,12,02,03,12.30
2018,05,12,02,04,12.30
2018,05,12,02,05,12.30
2018,05,12,02,06,12.30
2018,05,12,02,07,12.30
2018,05,12,02,08,12.30
2018,05,12,02,09,12.30
2018,05,12,02,10,12.30
2018,05,12,02,11,12.30
2018,05,12,02,12,12.30
2018,05,12,02,13,12.30
2018,05,12,02,14,12.30
2018,05,12,02,15,12.30
2018,05,12,02,16,12.30
2018,05,12,02,17,12.40
2018,05,12,02,18,12.40
2018,05,12,02,19,12.40
2018,05,12,02,20,12.40
2018,05,12,02,21,12.40
2018,05,12,02,22,12.40
2018,05,12,02,23,12.40
2018,05,12,02,24,12.50
2018,05,12,02,25,12.50
2018,05,12,02,26,12.50
2018,05,12,02,27,12.50
2018,05,12,02,28,12.60
2018,05,12,02,29,12.60
2018,05,12,02,30,12.60
2018,05,12,02,31,12.70
2018,05,12,02,32,12.70
2018,05,12,02,33,12.70
2018,05,12,02,34,12.80
2018,05,12,02,35,12.80
2018,05,12,02,36,12.80
2018,05,12,02,37,12.70
2018,05,12,02,38,12.70
2018,05,12,02,39,12.70
2018,05,12,02,40,12.70
2018,05,12,02,41,12.70
2018,05,12,02,42,12.70
2018,05,12,02,43,12.70
2018,05,12,02,44,12.70
2018,05,12,02,45,12.70
2018,05,12,02,46,12.70
2018,05,12,02,47,12.70
2018,05,12,02,48,12.70
2018,05,12,02,49,12.70
2018,05,12,02,50,12.70
2018,05,12,02,51,12.70
2018,05,12,02,52,12.70
2018,05,12,02,53,12.70
2018,05,12,02,54,12.70
2018,05,12,02,55,12.70
2018,05,12,02,56,12.70
2018,05,12,02,57,12.70
2018,05,12,02,58,12.70
2018,05,12,02,59,12.70
2018,05,12,03,00,12.70
2018,05,12,03,01,12.70
2018,05,12,03,02,12.70
2018,05,12,03,03,12.60
2018,05,12,03,04,12.60
2018,05,12,03,05,12.60
2018,05,12,03,06,12.60
2018,05,12,03,07,12.60
2018,05,12,03,08,12.60
2018,05,12,03,09,12.60
2018,05,12,03,10,12.60
2018,05,12,03,11,12.50
2018,05,12,03,12,12.50
2018,05,12,03,13,12.50
2018,05,12,03,14,12.50
2018,05,12,03,15,12.50
2018,05,12,03,16,12.50
2018,05,12,03,17,12.50
2018,05,12,03,18,12.50
2018,05,12,03,19,12.50
2018,05,12,03,20,12.50
2018,05,12,03,21,12.50
2018,05,12,03,22,12.50
2018,05,12,03,23,12.50
2018,05,12,03,24,12.50
2018,05,12,03,25,12.40
2018,05,12,03,26,12.40
2018,05,12,03,27,12.40
2018,05,12,03,28,12.40
2018,05,12,03,29,12.40
2018,05,12,03,30,12.40
2018,05,12,03,31,12.40
2018,05,12,03,32,12.40
2018,05,12,03,33,12.40
2018,05,12,03,34,12.40
2018,05,12,03,35,12.40
2018,05,12,03,36,12.30
2018,05,12,03,37,12.40
2018,05,12,03,38,12.30
2018,05,12,03,39,12.30
2018,05,12,03,40,12.30
2018,05,12,03,41,12.30
2018,05,12,03,42,12.30
2018,05,12,03,43,12.30
2018,05,12,03,44,12.30
2018,05,12,03,45,12.30
2018,05,12,03,46,12.20
2018,05,12,03,47,12.20
2018,05,12,03,48,12.20
2018,05,12,03,49,12.20
2018,05,12,03,50,12.20
2018,05,12,03,51,12.10
2018,05,12,03,52,12.10
2018,05,12,03,53,12.10
2018,05,12,03,54,12.10
2018,05,12,03,55,12.10
2018,05,12,03,56,12.10
2018,05,12,03,57,12.10
2018,05,12,03,58,12.10
2018,05,12,03,59,12.10
2018,05,12,04,00,12.10
2018,05,12,04,01,12.10
2018,05,12,04,02,12.10
2018,05,12,04,03,12.10
2018,05,12,04,04,12.00
2018,05,12,04,05,12.00
2018,05,12,04,06,12.00
2018,05,12,04,07,12.00
2018,05,12,04,08,12.00
2018,05,12,04,09,12.00
2018,05,12,04,10,11.90
2018,05,12,04,11,11.90
2018,05,12,04,12,11.90
2018,05,12,04,13,11.90
2018,05,12,04,14,11.90
2018,05,12,04,15,11.90
2018,05,12,04,16,11.90
2018,05,12,04,17,11.90
2018,05,12,04,18,11.90
2018,05,12,04,19,11.90
2018,05,12,04,20,11.90
2018,05,12,04,21,11.90
2018,05,12,04,22,11.90
2018,05,12,04,23,11.90
2018,05,12,04,24,11.90
2018,05,12,04,25,11.90
2018,05,12,04,26,11.90
2018,05,12,04,27,11.90
2018,05,12,04,28,11.90
2018,05,12,04,29,11.90
2018,05,12,04,30,11.90
2018,05,12,04,31,11.90
2018,05,12,04,32,11.90
2018,05,12,04,33,11.90
2018,05,12,04,34,11.90
2018,05,12,04,35,11.90
2018,05,12,04,36,11.90
2018,05,12,04,37,11.90
2018,05,12,04,38,11.90
2018,05,12,04,39,11.90
2018,05,12,04,40,11.90
2018,05,12,04,41,11.90
2018,05,12,04,42,12.00
2018,05,12,04,43,12.00
2018,05,12,04,44,12.00
2018,05,12,04,45,12.00
2018,05,12,04,46,12.00
2018,05,12,04,47,12.00
2018,05,12,04,48,12.00
2018,05,12,04,49,12.00
2018,05,12,04,50,12.00
2018,05,12,04,51,12.00
2018,05,12,04,52,12.00
2018,05,12,04,53,12.00
2018,05,12,04,54,12.00
2018,05,12,04,55,12.00
2018,05,12,04,56,11.90
2018,05,12,04,57,11.90
2018,05,12,04,58,11.90
2018,05,12,04,59,11.90
2018,05,12,05,00,11.90
2018,05,12,05,01,11.90
2018,05,12,05,02,11.90
2018,05,12,05,03,11.90
2018,05,12,05,04,11.90
2018,05,12,05,05,11.90
2018,05,12,05,06,11.80
2018,05,12,05,07,11.80
2018,05,12,05,08,11.80
2018,05,12,05,09,11.80
2018,05,12,05,10,11.80
2018,05,12,05,11,11.80
2018,05,12,05,12,11.80
2018,05,12,05,13,11.80
2018,05,12,05,14,11.80
2018,05,12,05,15,11.80
2018,05,12,05,16,11.80
2018,05,12,05,17,11.80
2018,05,12,05,18,11.80
2018,05,12,05,19,11.80
2018,05,12,05,20,11.80
2018,05,12,05,21,11.80
2018,05,12,05,22,11.80
2018,05,12,05,23,11.80
2018,05,12,05,24,11.70
2018,05,12,05,25,11.70
2018,05,12,05,26,11.70
2018,05,12,05,27,11.70
2018,05,12,05,28,11.70
2018,05,12,05,29,11.70
2018,05,12,05,30,11.60
2018,05,12,05,31,11.60
2018,05,12,05,32,11.60
2018,05,12,05,33,11.50
2018,05,12,05,34,11.50
2018,05,12,05,35,11.40
2018,05,12,05,36,11.40
2018,05,12,05,37,11.40
2018,05,12,05,38,11.40
2018,05,12,05,39,11.40
2018,05,12,05,40,11.30
2018,05,12,05,41,11.30
2018,05,12,05,42,11.30
2018,05,12,05,43,11.30
2018,05,12,05,44,11.30
2018,05,12,05,45,11.30
2018,05,12,05,46,11.30
2018,05,12,05,47,11.20
2018,05,12,05,48,11.20
2018,05,12,05,49,11.20
2018,05,12,05,50,11.20
2018,05,12,05,51,11.10
2018,05,12,05,52,11.10
2018,05,12,05,53,11.10
2018,05,12,05,54,11.10
2018,05,12,05,55,11.10
2018,05,12,05,56,11.00
2018,05,12,05,57,11.00
2018,05,12,05,58,11.00
2018,05,12,05,59,11.00
2018,05,12,06,00,10.90
2018,05,12,06,01,10.90
2018,05,12,06,02,10.90
2018,05,12,06,03,10.90
2018,05,12,06,04,10.90
2018,05,12,06,05,10.90
2018,05,12,06,06,10.80
2018,05,12,06,07,10.80
2018,05,12,06,08,10.80
2018,05,12,06,09,10.90
2018,05,12,06,10,10.90
2018,05,12,06,11,10.90
2018,05,12,06,12,10.90
2018,05,12,06,13,10.90
2018,05,12,06,14,10.90
2018,05,12,06,15,10.90
2018,05,12,06,16,10.90
2018,05,12,06,17,10.90
2018,05,12,06,18,10.80
2018,05,12,06,19,10.90
2018,05,12,06,20,10.90
2018,05,12,06,21,10.90
2018,05,12,06,22,10.90
2018,05,12,06,23,10.90
2018,05,12,06,24,10.90
2018,05,12,06,25,10.90
2018,05,12,06,26,10.90
2018,05,12,06,27,11.00
2018,05,12,06,28,11.00
2018,05,12,06,29,11.00
2018,05,12,06,30,11.00
2018,05,12,06,31,11.00
2018,05,12,06,32,11.00
2018,05,12,06,33,11.00
2018,05,12,06,34,11.10
2018,05,12,06,35,11.10
2018,05,12,06,36,11.10
2018,05,12,06,37,11.10
2018,05,12,06,38,11.10
2018,05,12,06,39,11.10
2018,05,12,06,40,11.10
2018,05,12,06,41,11.10
2018,05,12,06,42,11.10
2018,05,12,06,43,11.10
2018,05,12,06,44,11.10
2018,05,12,06,45,11.10
2018,05,12,06,46,11.20
2018,05,12,06,47,11.20
2018,05,12,06,48,11.20
2018,05,12,06,49,11.20
2018,05,12,06,50,11.20
2018,05,12,06,51,11.20
2018,05,12,06,52,11.20
2018,05,12,06,53,11.20
2018,05,12,06,54,11.20
2018,05,12,06,55,11.30
2018,05,12,06,56,11.30
2018,05,12,06,57,11.30
2018,05,12,06,58,11.30
2018,05,12,06,59,11.30
2018,05,12,07,00,11.30
2018,05,12,07,01,11.40
2018,05,12,07,02,11.40
2018,05,12,07,03,11.40
2018,05,12,07,04,11.40
2018,05,12,07,05,11.40
2018,05,12,07,06,11.50
2018,05,12,07,07,11.50
2018,05,12,07,08,11.50
2018,05,12,07,09,11.50
2018,05,12,07,10,11.60
2018,05,12,07,11,11.60
2018,05,12,07,12,11.60
2018,05,12,07,13,11.60
2018,05,12,07,14,11.60
2018,05,12,07,15,11.60
2018,05,12,07,16,11.60
2018,05,12,07,17,11.60
2018,05,12,07,18,11.60
2018,05,12,07,19,11.70
2018,05,12,07,20,11.70
2018,05,12,07,21,11.70
2018,05,12,07,22,11.70
2018,05,12,07,23,11.70
2018,05,12,07,24,11.80
2018,05,12,07,25,11.80
2018,05,12,07,26,11.80
2018,05,12,07,27,11.80
2018,05,12,07,28,11.80
2018,05,12,07,29,11.90
2018,05,12,07,30,11.90
2018,05,12,07,31,11.90
2018,05,12,07,32,11.90
2018,05,12,07,33,11.90
2018,05,12,07,34,11.90
2018,05,12,07,35,12.00
2018,05,12,07,36,12.00
2018,05,12,07,37,12.00
2018,05,12,07,38,12.10
2018,05,12,07,39,12.10
2018,05,12,07,40,12.10
2018,05,12,07,41,12.10
2018,05,12,07,42,12.20
2018,05,12,07,43,12.20
2018,05,12,07,44,12.20
2018,05,12,07,45,12.30
2018,05,12,07,46,12.30
2018,05,12,07,47,12.30
2018,05,12,07,48,12.40
2018,05,12,07,49,12.40
2018,05,12,07,50,12.50
2018,05,12,07,51,12.50
2018,05,12,07,52,12.60
2018,05,12,07,53,12.60
2018,05,12,07,54,12.70
2018,05,12,07,55,12.70
2018,05,12,07,56,12.80
2018,05,12,07,57,12.80
2018,05,12,07,58,12.80
2018,05,12,07,59,12.90
2018,05,12,08,00,12.90
2018,05,12,08,01,12.90
2018,05,12,08,02,12.90
2018,05,12,08,03,13.00
2018,05,12,08,04,13.00
2018,05,12,08,05,13.00
2018,05,12,08,06,13.10
2018,05,12,08,07,13.10
2018,05,12,08,08,13.10
2018,05,12,08,09,13.10
2018,05,12,08,10,13.10
2018,05,12,08,11,13.20
2018,05,12,08,12,13.20
2018,05,12,08,13,13.20
2018,05,12,08,14,13.20
2018,05,12,08,15,13.30
2018,05,12,08,16,13.30
2018,05,12,08,17,13.40
2018,05,12,08,18,13.40
2018,05,12,08,19,13.40
2018,05,12,08,20,13.50
2018,05,12,08,21,13.50
2018,05,12,08,22,13.50
2018,05,12,08,23,13.60
2018,05,12,08,24,13.60
2018,05,12,08,25,13.70
2018,05,12,08,26,13.80
2018,05,12,08,27,13.80
2018,05,12,08,28,13.80
2018,05,12,08,29,13.80
2018,05,12,08,30,13.80
2018,05,12,08,31,13.90
2018,05,12,08,32,13.90
2018,05,12,08,33,13.90
2018,05,12,08,34,13.90
2018,05,12,08,35,13.90
2018,05,12,08,36,13.90
2018,05,12,08,37,13.90
2018,05,12,08,38,13.90
2018,05,12,08,39,13.90
2018,05,12,08,40,13.90
2018,05,12,08,41,13.90
2018,05,12,08,42,13.90
2018,05,12,08,43,13.90
2018,05,12,08,44,13.90
2018,05,12,08,45,14.00
2018,05,12,08,46,14.00
2018,05,12,08,47,14.10
2018,05,12,08,48,14.10
2018,05,12,08,49,14.10
2018,05,12,08,50,14.20
2018,05,12,08,51,14.20
2018,05,12,08,52,14.30
2018,05,12,08,53,14.30
2018,05,12,08,54,14.40
2018,05,12,08,55,14.40
2018,05,12,08,56,14.40
2018,05,12,08,57,14.40
2018,05,12,08,58,14.50
2018,05,12,08,59,14.50
2018,05,12,09,00,14.60
2018,05,12,09,01,14.60
2018,05,12,09,02,14.70
2018,05,12,09,03,14.70
2018,05,12,09,04,14.80
2018,05,12,09,05,14.80
2018,05,12,09,06,14.90
2018,05,12,09,07,14.90
2018,05,12,09,08,14.90
2018,05,12,09,09,14.90
2018,05,12,09,10,14.90
2018,05,12,09,11,14.90
2018,05,12,09,12,15.00
2018,05,12,09,13,15.00
2018,05,12,09,14,15.10
2018,05,12,09,15,15.10
2018,05,12,09,16,15.20
2018,05,12,09,17,15.30
2018,05,12,09,18,15.30
2018,05,12,09,19,15.40
2018,05,12,09,20,15.40
2018,05,12,09,21,15.40
2018,05,12,09,22,15.50
2018,05,12,09,23,15.50
2018,05,12,09,24,15.50
2018,05,12,09,25,15.50
2018,05,12,09,26,15.50
2018,05,12,09,27,15.50
2018,05,12,09,28,15.50
2018,05,12,09,29,15.40
2018,05,12,09,30,15.40
2018,05,12,09,31,15.40
2018,05,12,09,32,15.40
2018,05,12,09,33,15.40
2018,05,12,09,34,15.40
2018,05,12,09,35,15.40
2018,05,12,09,36,15.50
2018,05,12,09,37,15.50
2018,05,12,09,38,15.60
2018,05,12,09,39,15.60
2018,05,12,09,40,15.70
2018,05,12,09,41,15.70
2018,05,12,09,42,15.70
2018,05,12,09,43,15.70
2018,05,12,09,44,15.80
2018,05,12,09,45,15.80
2018,05,12,09,46,15.80
2018,05,12,09,47,15.80
2018,05,12,09,48,15.90
2018,05,12,09,49,15.90
2018,05,12,09,50,15.90
2018,05,12,09,51,16.00
2018,05,12,09,52,16.00
2018,05,12,09,53,16.10
2018,05,12,09,54,16.20
2018,05,12,09,55,16.20
2018,05,12,09,56,16.30
2018,05,12,09,57,16.30
2018,05,12,09,58,16.40
2018,05,12,09,59,16.40
2018,05,12,10,00,16.40
2018,05,12,10,01,16.50
2018,05,12,10,02,16.50
2018,05,12,10,03,16.40
2018,05,12,10,04,16.40
2018,05,12,10,05,16.40
2018,05,12,10,06,16.30
2018,05,12,10,07,16.30
2018,05,12,10,08,16.30
2018,05,12,10,09,16.30
2018,05,12,10,10,16.30
2018,05,12,10,11,16.40
2018,05,12,10,12,16.30
2018,05,12,10,13,16.30
2018,05,12,10,14,16.30
2018,05,12,10,15,16.30
2018,05,12,10,16,16.30
2018,05,12,10,17,16.40
2018,05,12,10,18,16.40
2018,05,12,10,19,16.40
2018,05,12,10,20,16.50
2018,05,12,10,21,16.50
2018,05,12,10,22,16.40
2018,05,12,10,23,16.30
2018,05,12,10,24,16.30
2018,05,12,10,25,16.30
2018,05,12,10,26,16.30
2018,05,12,10,27,16.30
2018,05,12,10,28,16.30
2018,05,12,10,29,16.30
2018,05,12,10,30,16.40
2018,05,12,10,31,16.50
2018,05,12,10,32,16.50
2018,05,12,10,33,16.50
2018,05,12,10,34,16.60
2018,05,12,10,35,16.60
2018,05,12,10,36,16.60
2018,05,12,10,37,16.60
2018,05,12,10,38,16.60
2018,05,12,10,39,16.70
2018,05,12,10,40,16.70
2018,05,12,10,41,16.80
2018,05,12,10,42,16.80
2018,05,12,10,43,16.80
2018,05,12,10,44,16.80
2018,05,12,10,45,16.80
2018,05,12,10,46,16.70
2018,05,12,10,47,16.70
2018,05,12,10,48,16.70
2018,05,12,10,49,16.70
2018,05,12,10,50,16.70
2018,05,12,10,51,16.70
2018,05,12,10,52,16.70
2018,05,12,10,53,16.80
2018,05,12,10,54,16.80
2018,05,12,10,55,16.70
2018,05,12,10,56,16.70
2018,05,12,10,57,16.60
2018,05,12,10,58,16.60
2018,05,12,10,59,16.60
2018,05,12,11,00,16.60
2018,05,12,11,01,16.50
2018,05,12,11,02,16.60
2018,05,12,11,03,16.60
2018,05,12,11,04,16.70
2018,05,12,11,05,16.70
2018,05,12,11,06,16.70
2018,05,12,11,07,16.60
2018,05,12,11,08,16.60
2018,05,12,11,09,16.60
2018,05,12,11,10,16.60
2018,05,12,11,11,16.60
2018,05,12,11,12,16.70
2018,05,12,11,13,16.70
2018,05,12,11,14,16.80
2018,05,12,11,15,16.80
2018,05,12,11,16,16.80
2018,05,12,11,17,16.90
2018,05,12,11,18,16.90
2018,05,12,11,19,16.90
2018,05,12,11,20,16.90
2018,05,12,11,21,17.00
2018,05,12,11,22,17.10
2018,05,12,11,23,17.10
2018,05,12,11,24,17.10
2018,05,12,11,25,17.10
2018,05,12,11,26,17.10
2018,05,12,11,27,17.10
2018,05,12,11,28,17.10
2018,05,12,11,29,17.10
2018,05,12,11,30,17.10
2018,05,12,11,31,17.10
2018,05,12,11,32,17.20
2018,05,12,11,33,17.20
2018,05,12,11,34,17.20
2018,05,12,11,35,17.20
2018,05,12,11,36,17.30
2018,05,12,11,37,17.30
2018,05,12,11,38,17.40
2018,05,12,11,39,17.40
2018,05,12,11,40,17.50
2018,05,12,11,41,17.60
2018,05,12,11,42,17.60
2018,05,12,11,43,17.60
2018,05,12,11,44,17.60
2018,05,12,11,45,17.70
2018,05,12,11,46,17.80
2018,05,12,11,47,17.80
2018,05,12,11,48,17.90
2018,05,12,11,49,17.90
2018,05,12,11,50,18.00
2018,05,12,11,51,17.90
2018,05,12,11,52,18.00
2018,05,12,11,53,18.00
2018,05,12,11,54,18.10
2018,05,12,11,55,18.10
2018,05,12,11,56,18.10
2018,05,12,11,57,18.10
2018,05,12,11,58,18.00
2018,05,12,11,59,18.00
2018,05,12,12,00,18.00
2018,05,12,12,01,18.10
2018,05,12,12,02,18.00
2018,05,12,12,03,18.00
2018,05,12,12,04,18.00
2018,05,12,12,05,18.00
2018,05,12,12,06,17.90
2018,05,12,12,07,17.90
2018,05,12,12,08,18.00
2018,05,12,12,09,18.00
2018,05,12,12,10,18.10
2018,05,12,12,11,18.10
2018,05,12,12,12,18.10
2018,05,12,12,13,18.10
2018,05,12,12,14,18.10
2018,05,12,12,15,18.10
2018,05,12,12,16,18.10
2018,05,12,12,17,18.00
2018,05,12,12,18,17.90
2018,05,12,12,19,17.90
2018,05,12,12,20,17.90
2018,05,12,12,21,17.90
2018,05,12,12,22,18.00
2018,05,12,12,23,18.00
2018,05,12,12,24,18.10
2018,05,12,12,25,18.20
2018,05,12,12,26,18.30
2018,05,12,12,27,18.30
2018,05,12,12,28,18.30
2018,05,12,12,29,18.30
2018,05,12,12,30,18.30
2018,05,12,12,31,18.40
2018,05,12,12,32,18.40
2018,05,12,12,33,18.50
2018,05,12,12,34,18.50
2018,05,12,12,35,18.60
2018,05,12,12,36,18.70
2018,05,12,12,37,18.70
2018,05,12,12,38,18.70
2018,05,12,12,39,18.70
2018,05,12,12,40,18.70
2018,05,12,12,41,18.60
2018,05,12,12,42,18.60
2018,05,12,12,43,18.70
2018,05,12,12,44,18.70
2018,05,12,12,45,18.70
2018,05,12,12,46,18.80
2018,05,12,12,47,18.80
2018,05,12,12,48,18.80
2018,05,12,12,49,18.80
2018,05,12,12,50,18.80
2018,05,12,12,51,18.70
2018,05,12,12,52,18.70
2018,05,12,12,53,18.80
2018,05,12,12,54,18.80
2018,05,12,12,55,18.90
2018,05,12,12,56,19.00
2018,05,12,12,57,19.10
2018,05,12,12,58,19.20
2018,05,12,12,59,19.20
2018,05,12,13,00,19.20
2018,05,12,13,01,19.30
2018,05,12,13,02,19.30
2018,05,12,13,03,19.30
2018,05,12,13,04,19.30
2018,05,12,13,05,19.40
2018,05,12,13,06,19.40
2018,05,12,13,07,19.50
2018,05,12,13,08,19.50
2018,05,12,13,09,19.60
2018,05,12,13,10,19.60
2018,05,12,13,11,19.70
2018,05,12,13,12,19.70
2018,05,12,13,13,19.70
2018,05,12,13,14,19.80
2018,05,12,13,15,19.80
2018,05,12,13,16,19.80
2018,05,12,13,17,19.70
2018,05,12,13,18,19.70
2018,05,12,13,19,19.70
2018,05,12,13,20,19.60
2018,05,12,13,21,19.60
2018,05,12,13,22,19.70
2018,05,12,13,23,19.70
2018,05,12,13,24,19.80
2018,05,12,13,25,19.90
2018,05,12,13,26,20.00
2018,05,12,13,27,20.10
2018,05,12,13,28,20.10
2018,05,12,13,29,20.20
2018,05,12,13,30,20.20
2018,05,12,13,31,20.30
2018,05,12,13,32,20.30
2018,05,12,13,33,20.30
2018,05,12,13,34,20.30
2018,05,12,13,35,20.30
2018,05,12,13,36,20.30
2018,05,12,13,37,20.30
2018,05,12,13,38,20.40
2018,05,12,13,39,20.40
2018,05,12,13,40,20.40
2018,05,12,13,41,20.50
2018,05,12,13,42,20.60
2018,05,12,13,43,20.60
2018,05,12,13,44,20.70
2018,05,12,13,45,20.70
2018,05,12,13,46,20.80
2018,05,12,13,47,20.80
2018,05,12,13,48,20.80
2018,05,12,13,49,20.90
2018,05,12,13,50,20.90
2018,05,12,13,51,20.90
2018,05,12,13,52,20.90
2018,05,12,13,53,20.90
2018,05,12,13,54,21.00
2018,05,12,13,55,21.00
2018,05,12,13,56,21.00
2018,05,12,13,57,21.10
2018,05,12,13,58,21.10
2018,05,12,13,59,21.20
2018,05,12,14,00,21.20
2018,05,12,14,01,21.30
2018,05,12,14,02,21.30
2018,05,12,14,03,21.30
2018,05,12,14,04,21.30
2018,05,12,14,05,21.30
2018,05,12,14,06,21.30
2018,05,12,14,07,21.30
2018,05,12,14,08,21.20
2018,05,12,14,09,21.20
2018,05,12,14,10,21.20
2018,05,12,14,11,21.20
2018,05,12,14,12,21.20
2018,05,12,14,13,21.20
2018,05,12,14,14,21.20
2018,05,12,14,15,21.20
2018,05,12,14,16,21.20
2018,05,12,14,17,21.10
2018,05,12,14,18,21.10
2018,05,12,14,19,21.10
2018,05,12,14,20,21.10
2018,05,12,14,21,21.20
2018,05,12,14,22,21.30
2018,05,12,14,23,21.30
2018,05,12,14,24,21.40
2018,05,12,14,25,21.40
2018,05,12,14,26,21.50
2018,05,12,14,27,21.60
2018,05,12,14,28,21.70
2018,05,12,14,29,21.70
2018,05,12,14,30,21.70
2018,05,12,14,31,21.80
2018,05,12,14,32,21.80
2018,05,12,14,33,21.90
2018,05,12,14,34,21.90
2018,05,12,14,35,22.00
2018,05,12,14,36,22.00
2018,05,12,14,37,22.00
2018,05,12,14,38,22.10
2018,05,12,14,39,22.10
2018,05,12,14,40,22.10
2018,05,12,14,41,22.10
2018,05,12,14,42,22.10
2018,05,12,14,43,22.20
2018,05,12,14,44,22.20
2018,05,12,14,45,22.30
2018,05,12,14,46,22.40
2018,05,12,14,47,22.50
2018,05,12,14,48,22.50
2018,05,12,14,49,22.50
2018,05,12,14,50,22.60
2018,05,12,14,51,22.50
2018,05,12,14,52,22.40
2018,05,12,14,53,22.40
2018,05,12,14,54,22.40
2018,05,12,14,55,22.40
2018,05,12,14,56,22.50
2018,05,12,14,57,22.50
2018,05,12,14,58,22.60
2018,05,12,14,59,22.60
2018,05,12,15,00,22.70
2018,05,12,15,01,22.70
2018,05,12,15,02,22.80
2018,05,12,15,03,22.90
2018,05,12,15,04,22.90
2018,05,12,15,05,22.90
2018,05,12,15,06,22.90
2018,05,12,15,07,22.80
2018,05,12,15,08,22.70
2018,05,12,15,09,22.70
2018,05,12,15,10,22.60
2018,05,12,15,11,22.60
2018,05,12,15,12,22.60
2018,05,12,15,13,22.60
2018,05,12,15,14,22.60
2018,05,12,15,15,22.60
2018,05,12,15,16,22.60
2018,05,12,15,17,22.60
2018,05,12,15,18,22.60
2018,05,12,15,19,22.60
2018,05,12,15,20,22.60
2018,05,12,15,21,22.70
2018,05,12,15,22,22.70
2018,05,12,15,23,22.70
2018,05,12,15,24,22.70
2018,05,12,15,25,22.60
2018,05,12,15,26,22.60
2018,05,12,15,27,22.60
2018,05,12,15,28,22.60
2018,05,12,15,29,22.60
2018,05,12,15,30,22.60
2018,05,12,15,31,22.70
2018,05,12,15,32,22.70
2018,05,12,15,33,22.70
2018,05,12,15,34,22.70
2018,05,12,15,35,22.70
2018,05,12,15,36,22.60
2018,05,12,15,37,22.60
2018,05,12,15,38,22.60
2018,05,12,15,39,22.60
2018,05,12,15,40,22.60
2018,05,12,15,41,22.50
2018,05,12,15,42,22.40
2018,05,12,15,43,22.30
2018,05,12,15,44,22.20
2018,05,12,15,45,22.10
2018,05,12,15,46,22.10
2018,05,12,15,47,22.10
2018,05,12,15,48,22.10
2018,05,12,15,49,22.10
2018,05,12,15,50,22.20
2018,05,12,15,51,22.20
2018,05,12,15,52,22.20
2018,05,12,15,53,22.20
2018,05,12,15,54,22.20
2018,05,12,15,55,22.20
2018,05,12,15,56,22.20
2018,05,12,15,57,22.30
2018,05,12,15,58,22.30
2018,05,12,15,59,22.40
2018,05,12,16,00,22.40
2018,05,12,16,01,22.50
2018,05,12,16,02,22.50
2018,05,12,16,03,22.50
2018,05,12,16,04,22.60
2018,05,12,16,05,22.60
2018,05,12,16,06,22.70
2018,05,12,16,07,22.70
2018,05,12,16,08,22.80
2018,05,12,16,09,22.80
2018,05,12,16,10,22.90
2018,05,12,16,11,22.90
2018,05,12,16,12,23.00
2018,05,12,16,13,23.10
2018,05,12,16,14,23.10
2018,05,12,16,15,23.10
2018,05,12,16,16,23.10
2018,05,12,16,17,23.10
2018,05,12,16,18,23.10
2018,05,12,16,19,23.20
2018,05,12,16,20,23.10
2018,05,12,16,21,23.10
2018,05,12,16,22,23.10
2018,05,12,16,23,23.10
2018,05,12,16,24,23.10
2018,05,12,16,25,23.10
2018,05,12,16,26,23.20
2018,05,12,16,27,23.20
2018,05,12,16,28,23.20
2018,05,12,16,29,23.30
2018,05,12,16,30,23.30
2018,05,12,16,31,23.30
2018,05,12,16,32,23.30
2018,05,12,16,33,23.30
2018,05,12,16,34,23.30
2018,05,12,16,35,23.30
2018,05,12,16,36,23.30
2018,05,12,16,37,23.40
2018,05,12,16,38,23.40
2018,05,12,16,39,23.40
2018,05,12,16,40,23.40
2018,05,12,16,41,23.40
2018,05,12,16,42,23.40
2018,05,12,16,43,23.40
2018,05,12,16,44,23.40
2018,05,12,16,45,23.40
2018,05,12,16,46,23.40
2018,05,12,16,47,23.40
2018,05,12,16,48,23.40
2018,05,12,16,49,23.30
2018,05,12,16,50,23.30
2018,05,12,16,51,23.20
2018,05,12,16,52,23.20
2018,05,12,16,53,23.20
2018,05,12,16,54,23.30
2018,05,12,16,55,23.30
2018,05,12,16,56,23.30
2018,05,12,16,57,23.30
2018,05,12,16,58,23.40
2018,05,12,16,59,23.40
2018,05,12,17,00,23.50
2018,05,12,17,01,23.50
2018,05,12,17,02,23.60
2018,05,12,17,03,23.70
2018,05,12,17,04,23.80
2018,05,12,17,05,23.90
2018,05,12,17,06,24.00
2018,05,12,17,07,24.10
2018,05,12,17,08,24.10
2018,05,12,17,09,24.20
2018,05,12,17,10,24.30
2018,05,12,17,11,24.40
2018,05,12,17,12,24.30
2018,05,12,17,13,24.30
2018,05,12,17,14,24.20
2018,05,12,17,15,24.20
2018,05,12,17,16,24.20
2018,05,12,17,17,24.20
2018,05,12,17,18,24.30
2018,05,12,17,19,24.30